ARG1834 SABE-SAVC

Flight info

Callsign ARG1834
Flight time N/A
Altitude 38000
Route PTA8XGBE/31 GBE UT694 IREMO UP664 GATUD GATUD2U
Aircraft E190/M-SDE3GILORVW/S

Departure

Time N/A
Airport Aeroparque Jorge Newbery (SABE)

Arrival

Time 2026-05-03 21:03
Airport General Enrique Mosconi International Airport (SAVC)
Time Latitude Longitude Altitude Speed Heading
2026-05-03 20:15 -41.98538 -64.04913 37628 ft 402 kts 224°
2026-05-03 20:15 -42.03101 -64.09278 37635 ft 403 kts 224°
2026-05-03 20:16 -42.07672 -64.13662 37637 ft 404 kts 224°
2026-05-03 20:16 -42.12264 -64.18071 37626 ft 405 kts 224°
2026-05-03 20:17 -42.16854 -64.22486 37627 ft 406 kts 224°
2026-05-03 20:17 -42.21448 -64.26915 37636 ft 408 kts 224°
2026-05-03 20:18 -42.26078 -64.31381 37616 ft 409 kts 224°
2026-05-03 20:18 -42.30682 -64.35833 37617 ft 409 kts 224°
2026-05-03 20:19 -42.35308 -64.40316 37613 ft 409 kts 224°
2026-05-03 20:19 -42.39936 -64.44809 37587 ft 408 kts 224°
2026-05-03 20:20 -42.44540 -64.49284 37607 ft 408 kts 224°
2026-05-03 20:20 -42.49149 -64.53780 37601 ft 408 kts 224°
2026-05-03 20:21 -42.53750 -64.58268 37606 ft 409 kts 224°
2026-05-03 20:21 -42.58372 -64.62787 37628 ft 409 kts 225°
2026-05-03 20:22 -42.62990 -64.67310 37600 ft 409 kts 225°
2026-05-03 20:22 -42.67580 -64.71818 37594 ft 409 kts 225°
2026-05-03 20:23 -42.72189 -64.76352 37583 ft 410 kts 225°
2026-05-03 20:23 -42.76820 -64.80916 37593 ft 410 kts 225°
2026-05-03 20:24 -42.81411 -64.85446 37591 ft 410 kts 225°
2026-05-03 20:24 -42.86036 -64.90023 37587 ft 410 kts 225°
2026-05-03 20:25 -42.90650 -64.94592 37588 ft 410 kts 225°
2026-05-03 20:25 -42.95261 -64.99172 37597 ft 410 kts 225°
2026-05-03 20:26 -42.99853 -65.03744 37580 ft 411 kts 225°
2026-05-03 20:26 -43.04489 -65.08360 37596 ft 412 kts 225°
2026-05-03 20:27 -43.09112 -65.12975 37604 ft 411 kts 225°
2026-05-03 20:27 -43.13734 -65.17602 37609 ft 411 kts 225°
2026-05-03 20:28 -43.18333 -65.22209 37635 ft 411 kts 225°
2026-05-03 20:28 -43.23183 -65.26505 37600 ft 419 kts 220°
2026-05-03 20:29 -43.28229 -65.30532 37592 ft 420 kts 219°
2026-05-03 20:29 -43.33296 -65.34518 37602 ft 420 kts 219°
2026-05-03 20:30 -43.38367 -65.38537 37591 ft 420 kts 220°
2026-05-03 20:30 -43.43387 -65.42537 37581 ft 421 kts 220°
2026-05-03 20:31 -43.48468 -65.46587 37572 ft 422 kts 219°
2026-05-03 20:31 -43.53562 -65.50648 37575 ft 422 kts 219°
2026-05-03 20:32 -43.57788 -65.54028 37569 ft 422 kts 219°
2026-05-03 20:32 -43.63734 -65.58791 37570 ft 422 kts 219°
2026-05-03 20:33 -43.67959 -65.62187 37572 ft 423 kts 219°
2026-05-03 20:33 -43.73063 -65.66291 37570 ft 424 kts 219°
2026-05-03 20:34 -43.78184 -65.70416 37570 ft 424 kts 219°
2026-05-03 20:34 -43.83250 -65.74509 37568 ft 424 kts 219°
2026-05-03 20:35 -43.88353 -65.78636 37588 ft 425 kts 219°
2026-05-03 20:35 -43.93464 -65.82781 37571 ft 425 kts 219°
2026-05-03 20:36 -43.98578 -65.86938 37568 ft 426 kts 219°
2026-05-03 20:36 -44.03732 -65.90950 37574 ft 429 kts 216°
2026-05-03 20:37 -44.09089 -65.94661 37173 ft 425 kts 216°
2026-05-03 20:37 -44.11669 -65.96472 37034 ft 406 kts 217°
2026-05-03 20:37 -44.14160 -65.98275 36371 ft 401 kts 217°
2026-05-03 20:37 -44.16590 -66.00077 35955 ft 391 kts 218°
2026-05-03 20:38 -44.18986 -66.01856 35356 ft 388 kts 218°
2026-05-03 20:38 -44.21346 -66.03590 34892 ft 381 kts 218°
2026-05-03 20:38 -44.23685 -66.05298 34369 ft 377 kts 218°
2026-05-03 20:38 -44.25984 -66.06970 33871 ft 377 kts 218°
2026-05-03 20:39 -44.28326 -66.08696 33397 ft 384 kts 218°
2026-05-03 20:39 -44.30707 -66.10454 32818 ft 390 kts 218°
2026-05-03 20:39 -44.33104 -66.12209 32363 ft 389 kts 217°
2026-05-03 20:39 -44.35514 -66.13967 31794 ft 389 kts 217°
2026-05-03 20:40 -44.37914 -66.15719 31299 ft 390 kts 217°
2026-05-03 20:40 -44.40294 -66.17473 30803 ft 391 kts 217°
2026-05-03 20:40 -44.42708 -66.19251 30243 ft 393 kts 217°
2026-05-03 20:40 -44.45129 -66.21035 29753 ft 392 kts 217°
2026-05-03 20:41 -44.47543 -66.22812 29172 ft 393 kts 217°
2026-05-03 20:41 -44.49969 -66.24600 28669 ft 396 kts 217°
2026-05-03 20:41 -44.52416 -66.26410 28189 ft 396 kts 217°
2026-05-03 20:41 -44.54870 -66.28225 27593 ft 398 kts 217°
2026-05-03 20:42 -44.57312 -66.30029 27091 ft 398 kts 217°
2026-05-03 20:42 -44.59761 -66.31838 26580 ft 393 kts 216°
2026-05-03 20:42 -44.62177 -66.33621 26018 ft 390 kts 217°
2026-05-03 20:42 -44.64561 -66.35389 25498 ft 386 kts 216°
2026-05-03 20:43 -44.66922 -66.37144 25038 ft 381 kts 216°
2026-05-03 20:43 -44.69242 -66.38872 24482 ft 382 kts 216°
2026-05-03 20:43 -44.71607 -66.40635 24002 ft 378 kts 216°
2026-05-03 20:43 -44.73899 -66.42342 23498 ft 375 kts 216°
2026-05-03 20:44 -44.76195 -66.44051 22955 ft 373 kts 216°
2026-05-03 20:44 -44.78485 -66.45756 22512 ft 367 kts 216°
2026-05-03 20:44 -44.80745 -66.47445 21979 ft 367 kts 216°
2026-05-03 20:44 -44.82961 -66.49105 21519 ft 365 kts 216°
2026-05-03 20:45 -44.85223 -66.50798 21049 ft 361 kts 216°
2026-05-03 20:45 -44.87397 -66.52424 20528 ft 359 kts 216°
2026-05-03 20:45 -44.89599 -66.54073 20090 ft 356 kts 216°
2026-05-03 20:45 -44.91787 -66.55714 19613 ft 353 kts 216°
2026-05-03 20:46 -44.93950 -66.57339 19107 ft 354 kts 216°
2026-05-03 20:46 -44.96121 -66.58973 18691 ft 350 kts 216°
2026-05-03 20:46 -44.98276 -66.60594 18184 ft 349 kts 216°
2026-05-03 20:46 -45.00403 -66.62193 17720 ft 346 kts 216°
2026-05-03 20:47 -45.02528 -66.63789 17278 ft 341 kts 216°
2026-05-03 20:47 -45.04588 -66.65338 16792 ft 340 kts 216°
2026-05-03 20:47 -45.06664 -66.66905 16383 ft 336 kts 216°
2026-05-03 20:47 -45.08718 -66.68454 15933 ft 333 kts 216°
2026-05-03 20:48 -45.10760 -66.69992 15475 ft 331 kts 216°
2026-05-03 20:48 -45.12778 -66.71513 15056 ft 326 kts 216°
2026-05-03 20:48 -45.14779 -66.73025 14608 ft 324 kts 216°
2026-05-03 20:48 -45.16754 -66.74517 14169 ft 319 kts 216°
2026-05-03 20:49 -45.18684 -66.75973 13780 ft 308 kts 215°
2026-05-03 20:49 -45.20552 -66.77382 13347 ft 301 kts 215°
2026-05-03 20:49 -45.22375 -66.78759 12960 ft 291 kts 215°
2026-05-03 20:49 -45.24114 -66.80074 12583 ft 283 kts 216°
2026-05-03 20:50 -45.25827 -66.81377 12206 ft 276 kts 216°
2026-05-03 20:50 -45.27507 -66.82656 11849 ft 271 kts 216°
2026-05-03 20:50 -45.29162 -66.83920 11493 ft 271 kts 216°
2026-05-03 20:50 -45.30830 -66.85197 11131 ft 272 kts 216°
2026-05-03 20:51 -45.32496 -66.86465 10748 ft 270 kts 216°
2026-05-03 20:51 -45.34143 -66.87712 10403 ft 267 kts 216°
2026-05-03 20:51 -45.35774 -66.88946 10049 ft 264 kts 216°
2026-05-03 20:51 -45.37369 -66.90161 9699 ft 261 kts 217°
2026-05-03 20:52 -45.38965 -66.91381 9353 ft 260 kts 217°
2026-05-03 20:52 -45.40553 -66.92597 8993 ft 260 kts 217°
2026-05-03 20:52 -45.42150 -66.93822 8676 ft 259 kts 216°
2026-05-03 20:52 -45.43744 -66.95030 8317 ft 260 kts 215°
2026-05-03 20:53 -45.45330 -66.96239 7979 ft 258 kts 216°
2026-05-03 20:53 -45.46913 -66.97455 7635 ft 257 kts 216°
2026-05-03 20:53 -45.48493 -66.98670 7290 ft 258 kts 216°
2026-05-03 20:53 -45.50067 -66.99880 6952 ft 258 kts 216°
2026-05-03 20:54 -45.51634 -67.01081 6607 ft 257 kts 216°
2026-05-03 20:54 -45.54787 -67.03496 5923 ft 256 kts 216°
2026-05-03 20:54 -45.56370 -67.04714 5566 ft 258 kts 215°
2026-05-03 20:55 -45.57948 -67.05928 5234 ft 258 kts 215°
2026-05-03 20:55 -45.59536 -67.07150 4885 ft 260 kts 215°
2026-05-03 20:55 -45.61126 -67.08377 4532 ft 260 kts 215°
2026-05-03 20:55 -45.62700 -67.09585 4171 ft 256 kts 215°
2026-05-03 20:56 -45.64242 -67.10761 3845 ft 244 kts 215°
2026-05-03 20:56 -45.65716 -67.11885 3506 ft 236 kts 215°
2026-05-03 20:56 -45.67149 -67.12985 3170 ft 231 kts 216°
2026-05-03 20:56 -45.68561 -67.14083 2855 ft 230 kts 217°
2026-05-03 20:57 -45.69955 -67.15174 2502 ft 226 kts 217°
2026-05-03 20:57 -45.71296 -67.16215 2201 ft 219 kts 216°
2026-05-03 20:57 -45.72618 -67.17227 1860 ft 211 kts 216°
2026-05-03 20:57 -45.73859 -67.18173 1700 ft 193 kts 216°
2026-05-03 20:58 -45.74856 -67.19275 1598 ft 173 kts 249°
2026-05-03 20:58 -45.75202 -67.20856 1655 ft 165 kts 265°
2026-05-03 20:58 -45.75389 -67.22467 1831 ft 164 kts 266°
2026-05-03 20:58 -45.75554 -67.24034 2414 ft 156 kts 266°
2026-05-03 20:59 -45.75741 -67.25655 2638 ft 175 kts 266°
2026-05-03 20:59 -45.75961 -67.27462 2156 ft 182 kts 265°
2026-05-03 20:59 -45.76206 -67.29223 1767 ft 182 kts 264°
2026-05-03 20:59 -45.76448 -67.30868 1811 ft 161 kts 264°
2026-05-03 21:00 -45.76673 -67.32398 1909 ft 143 kts 267°
2026-05-03 21:00 -45.76786 -67.33268 2087 ft 133 kts 268°
2026-05-03 21:00 -45.77000 -67.35011 2041 ft 127 kts 267°
2026-05-03 21:00 -45.77161 -67.36226 1949 ft 121 kts 266°
2026-05-03 21:01 -45.77315 -67.37339 1911 ft 102 kts 265°
2026-05-03 21:01 -45.77464 -67.38333 1709 ft 107 kts 266°
2026-05-03 21:01 -45.77593 -67.39393 1466 ft 110 kts 268°
2026-05-03 21:01 -45.77727 -67.40474 1207 ft 111 kts 268°
2026-05-03 21:02 -45.77894 -67.41630 914 ft 130 kts 263°
2026-05-03 21:02 -45.78060 -67.42979 465 ft 139 kts 265°
2026-05-03 21:02 -45.78232 -67.44299 317 ft 131 kts 262°
2026-05-03 21:02 -45.78394 -67.45531 200 ft 110 kts 262°
2026-05-03 21:03 -45.78503 -67.46400 195 ft 66 kts 260°
2026-05-03 21:03 -45.78566 -67.46896 207 ft 39 kts 260°
2026-05-03 21:03 -45.78602 -67.47177 192 ft 22 kts 258°
2026-05-03 21:03 -45.78644 -67.47314 192 ft 10 kts 213°
2026-05-03 21:04 -45.78694 -67.47302 193 ft 5 kts 160°
2026-05-03 21:04 -45.78729 -67.47287 198 ft 6 kts 165°
2026-05-03 21:04 -45.78771 -67.47265 199 ft 7 kts 159°
2026-05-03 21:04 -45.78825 -67.47239 200 ft 9 kts 162°
2026-05-03 21:05 -45.78884 -67.47210 195 ft 7 kts 159°
2026-05-03 21:05 -45.78922 -67.47176 204 ft 3 kts 109°
2026-05-03 21:05 -45.78920 -67.47132 195 ft 6 kts 87°
2026-05-03 21:05 -45.78918 -67.47060 195 ft 9 kts 88°
2026-05-03 21:06 -45.78916 -67.46983 195 ft 8 kts 87°
2026-05-03 21:06 -45.78913 -67.46901 204 ft 6 kts 87°
2026-05-03 21:06 -45.78912 -67.46852 200 ft 2 kts 89°
2026-05-03 21:06 -45.78919 -67.46833 197 ft 2 kts 138°
2026-05-03 21:07 -45.78928 -67.46836 204 ft 1 kts 199°
2026-05-03 21:07 -45.78931 -67.46844 209 ft 1 kts 233°
2026-05-03 21:07 -45.78933 -67.46857 207 ft 3 kts 247°
2026-05-03 21:07 -45.78939 -67.46869 196 ft 2 kts 238°
2026-05-03 21:08 -45.78945 -67.46878 197 ft 2 kts 229°
2026-05-03 21:08 -45.78947 -67.46882 197 ft 1 kts 229°
2026-05-03 21:08 -45.78949 -67.46886 201 ft 0 kts 229°
2026-05-03 21:08 -45.78950 -67.46886 202 ft 0 kts 228°